Location: Arnold
(38.6403°N, 100.0462°W)
Time: 10:50:37
(UTC-06:00)

ISS - Visible Passes

Search period start: 15 December 2018 00:00
Search period end: 25 December 2018 00:00
Orbit: 401 x 408 km, 51.6° (Epoch: 16 December)

Date Brightness Start Highest point End Pass type
(mag) Time Alt. Az. Time Alt. Az. Time Alt. Az.
16 Dec -0.7 17:52:13 10° W 17:54:38 19° SW 17:57:02 10° S visible
21 Dec -0.5 07:02:51 10° S 07:04:55 16° SE 07:07:00 10° E visible
23 Dec -2.3 06:53:33 10° SSW 06:56:39 40° SE 06:59:45 10° ENE visible
24 Dec -1.1 06:02:02 10° S 06:04:31 20° SE 06:07:00 10° E visible
